Volver al catálogo

STARLINK-11372

ActivoComunicacionesVLEO
NORAD 61576·PAYLOAD·🇺🇸 United States

Lanzado Oct 18, 2024 desde Cape Canaveral Space Force Station

Loading…

Próximos Pases (próximas 24 horas)

TLE

ActualizadoSource: CelesTrak SupGP

Época: Sep 14, 2026, 22:32 UTC

1 61576C 24187C   26257.93937500  .00104330  00000+0  85875-3 0  2578
2 61576  53.1572  83.2324 0001149  56.6319   5.8103 15.69675438    19

Sigue STARLINK-11372 en tiempo real con AllMySat

Download on the App Store